Regional Weather Roundup
Issued by NWS State College, PA

Home | Current Version | Previous Version | Text Only | Print | Product List | Glossary Off
Versions: 1 2 3 4 5 6 7 8 9 10 11 12 13 14 15 16 17 18 19 20 21 22 23 24 25 26 27 28 29 30 31 32 33 34 35 36 37 38 39 40 41 42 43 44 45 46 47 48 49 50

000
ASUS41 KCTP 071010
RWRCTP

REGIONAL WEATHER ROUNDUP
NATIONAL WEATHER SERVICE STATE COLLEGE PA
600 AM EDT TUE JUL 07 2015

Note: "fair" indicates few or no clouds below 12,000 feet with no
significant weather and/or obstructions to visibility.

* = STATION THAT DOES NOT REPORT PRECIPITATION /E.G. RAIN...SNOW...ETC/
    THUNDER OR FOG.

PAZ002>004-007>009-013>016-020>023-029>032-071100-
WESTERN PENNSYLVANIA

CITY           SKY/WX    TMP DP  RH WIND       PRES   REMARKS
ERIE           CLEAR     72  63  73 S12       29.95S
MEADVILLE      CLEAR     67  64  90 CALM      30.01S FOG
FRANKLIN*      CLEAR     64  61  88 S7        30.04S
NEW CASTLE     FAIR      67  67 100 CALM      30.03R
BEAVER COUNTY  NOT AVBL
BUTLER*        MOCLDY    66  64  94 SW3       30.06R
PITTSBURGH INT PTCLDY    68  66  93 S3        30.03R
PITTSBURGH     MOCLDY    67  63  87 S7        30.04R FOG
INDIANA*       CLOUDY    68  68 100 SW6       30.09R FOG
LATROBE        NOT AVBL
WASHINGTON CO* NOT AVBL
$$

PAZ004>006-010>012-017>019-024>028-033>037-041-042-045-046-049>053-071100-
CENTRAL PENNSYLVANIA

CITY           SKY/WX    TMP DP  RH WIND       PRES   REMARKS
BRADFORD       CLOUDY    67  65  93 CALM      30.04S
DUBOIS         CLOUDY    69  66  90 SW6       30.04S FOG
CLEARFIELD     CLOUDY    68  66  93 S7        30.05R
JOHNSTOWN      HVY RAIN  66  64  93 SW7       30.09R FOG
ALTOONA        MOCLDY    67  65  93 SW3       30.07R
STATE COLLEGE  CLOUDY    68  68 100 CALM      30.04R FOG
WILLIAMSPORT   CLOUDY    73  69  87 E3        29.99R
SELINSGROVE    CLOUDY    73  71  93 CALM      30.02R FOG
FT INDIANTOWN  CLOUDY    72  71  96 SW2       30.02S
CAPITAL CITY   CLOUDY    73  69  87 CALM      30.02R
HARRISBURG     CLOUDY    73  70  90 CALM      30.01R
YORK           PTCLDY    72  70  93 SW5       30.03R
$$

PAZ038>040-043-044-047-048-054-055-060>062-067>071-071100-
EASTERN PENNSYLVANIA

CITY           SKY/WX    TMP DP  RH WIND       PRES   REMARKS
SCRANTON       MOCLDY    72  72 100 CALM      30.03R FOG
MOUNT POCONO   LGT RAIN  70  32  24 S7        30.08S
ALLENTOWN      CLOUDY    75  71  87 S3        30.02S
QUAKERTOWN*    CLOUDY    73  72  94 CALM      30.04S
READING        LGT RAIN  73  71  93 S3        30.02R
LANCASTER      CLOUDY    73  71  93 S5        30.03R FOG
COATESVILLE    CLOUDY    72  72 100 CALM      30.06R
POTTSTOWN      MOCLDY    72  71  97 CALM      30.05R
BLUE BELL      PTCLDY    73  72  94 S5        30.03S
DOYLESTOWN     PTCLDY    71  70  96 VRB3      30.03S
WILLOW GROVE   NOT AVBL
NORTH PHILA    LGT RAIN  76  71  85 CALM      30.05R
PHILADELPHIA   CLOUDY    76  72  87 S3        30.04R
$$



USA.gov is the U.S. government's official web portal to all federal, state and local government web resources and services.